Flag for U.S.A. Weather past 2 weeks in Akron, Ohio, U.S.A.

Now
77 °F

Broken clouds.


Feels Like: 79 °F
Forecast: 67 / 84 °F
Wind: 13 mph from Southwest

Location: Akron Fulton International Airport

Current Time: May 26, 2015 at 1:08:14 PM

Latest Report: May 26, 2015 at 11:54 AM


Visibility: 10 mi

Pressure: 30.11 "Hg

Humidity: 64%

Dew point: 64 °F

Location of AkronLocation

Historic Weather in Akron — Graph

°F

Akron temperature yesterday

Maximum temperature yesterday: 84 °F (at 2:54 PM)
Minimum temperature yesterday: 61 °F (at 2:54 AM)
Average temperature yesterday: 74 °F

Past Weeks' High & Low Weather Summary

 TemperatureHumidityPressure
High86 °F (May 11, 2:54 PM)93% (May 17, 3:54 AM)30.48 "Hg (May 17, 3:54 AM)
Low33 °F (May 14, 5:58 AM)23% (May 23, 3:54 PM)29.84 "Hg (May 11, 5:54 PM)
Average63 °F62%30.13 "Hg
* Reported May 11 11:54 AM — May 26 11:54 AM, Akron, Weather by CustomWeather, © 2015

Note: Actual official high and low records may vary slightly from our data, if they occured in-between our weather recording intervals... More about our weather records

Advertising

Akron weather history for previous 24 hours

 ConditionsComfort  
Time TempWeatherWind HumidityBarometerVisibility
11:54 AM
Tue, May 26
77 °FBroken clouds.13 mph64%30.11 "Hg10 mi
10:54 AMN/AScattered clouds.13 mphN/A30.14 "HgN/A
9:54 AM75 °FPartly sunny.12 mph69%30.11 "Hg10 mi
8:54 AM73 °FOvercast.12 mph74%30.13 "Hg10 mi
7:54 AM71 °FOvercast.8 mph76%30.12 "Hg10 mi
6:54 AM69 °FMostly cloudy.6 mph79%30.11 "Hg10 mi
5:54 AM68 °FPassing clouds.8 mph78%30.09 "Hg10 mi
4:54 AM70 °FOvercast.7 mph76%30.08 "Hg10 mi
3:54 AM70 °FLight rain. Mostly cloudy.7 mph73%30.08 "Hg10 mi
2:54 AM69 °FPassing clouds.7 mph73%30.09 "Hg10 mi
1:54 AM69 °FPassing clouds.8 mph70%30.09 "Hg10 mi
12:54 AM71 °FClear.7 mph66%30.10 "Hg10 mi
11:54 PM
Mon, May 25
74 °FClear.7 mph60%30.08 "Hg10 mi
10:54 PM77 °FOvercast.13 mph54%30.07 "Hg10 mi
9:54 PM78 °FOvercast.10 mph52%30.05 "Hg10 mi
8:54 PM78 °FOvercast.15 mph56%30.04 "Hg10 mi
7:54 PM80 °FSunny.12 mph54%30.04 "Hg10 mi
6:54 PM78 °FSunny.12 mph60%30.04 "Hg10 mi
5:54 PM82 °FPassing clouds.17 mph49%30.04 "Hg10 mi
4:54 PM82 °FPartly sunny.15 mph48%30.05 "Hg10 mi
3:54 PM84 °FBroken clouds.20 mph45%30.05 "Hg10 mi
2:54 PM84 °FPassing clouds.18 mph46%30.05 "Hg10 mi
1:54 PM83 °FSunny.15 mph48%30.07 "Hg10 mi
Weather by CustomWeather, © 2015

See weather overviewHow to use our weather pages